Main page
METAR-TAF:

METAR-TAF

Airports :

Pontoise – Cormeilles Aerodrome

Pontoise, France

latitude: 49-05-48N, longitude: 002-02-27E, elevation: 99 m

Current weather observation

The report was made 20 minutes ago, at 20:30 UTC
Wind 4 kt from the North/Northwest, varying between West/Northwest and North/Northeast
Temperature 5°C
Humidity 87%
Pressure 1037 hPa
Visibility 10 km or more
Overcast at a height of 1000 ft

METAR: LFPT 222030Z AUTO 34004KT 300V020 9999 OVC010 05/03 Q1037

Time: 21:50 (20:50 UTC)


TAF: missing

Weather observations and forecasts of more than 4000 airports (METAR and TAF reports).

The available stations are represented by yellow and red dots on the map.

Hover mouse over dot to see the name of the station.

Then click to see weather observations and forecasts.

To change the map : click on the green buttons with a black cross to zoom in, on the green button with a dash to zoom out, or on the green arrows for adjacent maps.


METAR-TAF: